User: anonymous   Login
Location: Handeloh
(53.2500°N, 9.8330°E)
Time: 06:57:26
(UTC+01:00)
Language:

Vanguard 1 - Orbit

View from above orbital plane
View from above orbital plane
View from above satellite
View from above satellite

Ground track
Ground track

The orbit data is extracted from the following two-line orbital elements,

1     5U 58002B   19315.03204253  .00000150  00000-0  21760-3 0  9993
2     5  34.2409 184.2435 1843571  84.9873 295.7446 10.84783620181527
Epoch (UTC): 11 November 2019 00:46:08
Eccentricity: 0.1843571
inclination: 34.2409°
perigee height: 652 km
apogee height: 3831 km
right ascension of ascending node: 184.2435°
argument of perigee: 84.9873°
revolutions per day: 10.84783620
mean anomaly at epoch: 295.7446°
orbit number at epoch: 18152

The dashed part of the orbit path shows where the satellite is in the earth's shadow,  

DLR